Location: Grange Verzio
(44.5000°N, 6.9833°E)
Time: 12:29:23
(UTC+00:00)

Cosmos 1386 Rocket - Pass Details

Date: 01 February 2023
Orbit: 930 x 1005 km, 83.0° (Epoch: 25 March)

Event Time Altitude Azimuth Distance (km) Brightness Sun altitude
Rises 18:31:55 0° 355° (N) 3,595 7.5 -20.0°
Reaches altitude 10° 18:34:27 10° 359° (N) 2,646 6.7 -20.4°
Maximum altitude 18:40:24 59° 78° (ENE) 1,071 4.4 -21.5°
Drops below altitude 10° 18:46:19 10° 158° (SSE) 2,643 6.6 -22.6°
Sets 18:48:51 0° 162° (SSE) 3,590 7.3 -23.0°
